Regional Weather Roundup
Issued by NWS Jackson, KY

Home | Current Version | Previous Version | Graphics & Text | Print | Product List | Glossary On
Versions: 1 2 3 4 5 6 7 8 9 10 11 12 13 14 15 16 17 18 19 20 21 22 23 24 25 26 27 28 29 30 31 32 33 34 35 36 37 38 39 40 41 42 43 44 45 46 47 48 49 50
000
ASUS43 KJKL 041410
RWRJKL

EAST KENTUCKY HOURLY WEATHER ROUNDUP
NATIONAL WEATHER SERVICE JACKSON KY
1000 AM EDT FRI SEP 04 2015

NOTE: "FAIR" INDICATES FEW OR NO CLOUDS BELOW 12,000 FEET WITH
NO SIGNIFICANT WEATHER AND/OR OBSTRUCTIONS TO VISIBILITY.

* THESE REPORTS ARE NOT UNDER NWS QUALITY CONTROL AND MAY NOT
  REPORT WEATHER SUCH AS PRECIPITATION AND FOG.

KYZ079-080-083-085-087-088-110-112-115-119-120-041500
...EASTERN KENTUCKY...

CITY           SKY/WX    TMP DP  RH WIND       PRES   REMARKS
JACKSON        SUNNY     75  68  78 CALM      30.09S
LONDON         SUNNY     76  66  71 CALM      30.09S
SOMERSET*      SUNNY     73  70  88 CALM      30.09S
MONTICELLO*    SUNNY     77  72  84 CALM      30.10S
MIDDLESBORO*   CLOUDY    67  66  99 CALM      30.10S FOG
HARLAN APT*      N/A     64  64 100 MISG      30.12R VSB 3/4
HAZARD APT*    SUNNY     73  72  94 CALM      30.09F
BLACK MTN*       N/A     70  64  83 VRB6        N/A
PIKEVILLE APT* SUNNY     72  70  94 CALM      30.11R
BIG SANDY*     SUNNY     74  71  88 CALM      30.09S
MOREHEAD APT*  SUNNY     77  70  78 CALM      30.09S
$$

KYZ035-036-041-042-044-050-067-078-099-041500
...CENTRAL KENTUCKY...

CITY           SKY/WX    TMP DP  RH WIND       PRES   REMARKS
MT STERLING*   SUNNY     81  72  74 CALM      30.08F
FLEMING/MASON* SUNNY     77  70  78 CALM      30.08R
DANVILLE*      SUNNY     79  70  73 CALM      30.09S
RICHMOND*      SUNNY     77  66  69 CALM      30.07F
LEXINGTON      SUNNY     82  69  64 CALM      30.07S
FRANKFORT      SUNNY     79  68  69 CALM      30.05F
$$

KYZ091>093-OHZ055-061-077-WVZ005-015-034-035-042-041500
...SOUTHERN OHIO/WEST VIRGINIA...

CITY           SKY/WX    TMP DP  RH WIND       PRES   REMARKS
COVINGTON      MOSUNNY   81  68  64 W5        30.05S
COLUMBUS       CLOUDY    71  66  84 VRB3      30.07R
DAYTON         PTSUNNY   78  70  76 S5        30.06R
WILMINGTON     SUNNY     76  69  79 SE5       30.06S
HUNTINGTON     SUNNY     73  67  81 VRB3      30.07S
CHARLESTON     PTSUNNY   71  68  90 E7        30.09S FOG
PINEVILLE*     CLOUDY    69  69 100 MISG      30.17S FOG
BECKLEY        SUNNY     74  66  76 N6        30.15S
BLUEFIELD      SUNNY     75  64  68 W3        30.17S
$$

VAZ002-007-008-TNZ017-027-036-066-071-041500
...SOUTHWEST VIRGINIA/EAST TENNESSEE...

CITY           SKY/WX    TMP DP  RH WIND       PRES   REMARKS
WISE*          SUNNY     75  63  64 NE7       30.17S
JONESVILLE*    SUNNY     73  66  78 CALM      30.12S
ABINGDON*      SUNNY     76  66  69 E3        30.12S
BRISTOL        SUNNY     72  67  84 VRB3      30.10S HAZE
KNOXVILLE      SUNNY     76  68  76 NE3       30.06R
OAK RIDGE      SUNNY     78  68  71 VRB3      30.07S
CROSSVILLE     SUNNY     78  66  66 CALM      30.12R
NASHVILLE      SUNNY     82  69  64 CALM      30.06R
$$

...KEY TO REMARKS...
VSB - VISIBILITY IN MILES
WCI - WIND CHILL INDEX
HX  - HEAT INDEX

$$



USA.gov is the U.S. government's official web portal to all federal, state and local government web resources and services.